[[{"header":{"parameterUnit":"m.s-1","parameterCategory":1,"la1":30.2991,"la2":30.254,"lo1":-89.0895,"lo2":-89.0444,"dy":0.0017,"dx":0.0017,"nx":28,"ny":28,"refTime":"2023-07-19T09:00:00:Z","depth":0,"parameterNumber":2,"parameterNumberName":"U-component_of_WINDS"},"data":[0,0,0,0,0,0,0,0,0,0,0,0,0,0,0,0,0,0,0,0,0,0,0,0,0,0,0,0,0,0,0,0,0,0,0,0,0,0,0,0,0,0,0,0,0,0,0,0,0,0,0,0,0,0,0,0,0,0,2.371,2.371,0,2.374,2.374,2.3741,2.3777,2.3778,2.3778,2.3779,2.3809,2.3809,2.381,0,0,0,0,0,0,0,0,0,0,0,0,0,2.3683,2.3683,2.371,2.371,2.371,2.374,2.374,2.3741,2.3777,2.3778,2.3778,2.3779,2.3809,2.3809,2.381,0,0,0,0,0,0,0,0,0,0,0,0,0,2.3702,2.3683,2.371,2.3732,2.3734,2.374,2.374,2.3741,2.3777,2.3778,2.3778,2.3779,2.3809,2.3809,2.381,2.3796,0,0,2.3811,2.3811,0,0,0,0,0,0,0,0,2.3701,2.3703,2.3728,2.3731,2.3733,2.3756,2.3742,2.3759,2.3777,2.3761,2.3779,2.378,2.3791,2.3793,2.3796,2.3797,2.3798,2.3811,2.3811,2.3812,2.3812,0,0,0,0,0,0,0,2.3699,2.3702,2.3722,2.3729,2.3732,2.3741,2.3744,2.3746,2.3771,2.3762,2.3765,2.3768,2.3792,2.3796,2.3797,2.3799,2.3811,2.3811,2.3812,2.3812,2.379,2.3789,0,0,0,0,0,0,2.3695,2.37,2.3721,2.3723,2.3719,2.374,2.3744,2.3748,2.3771,2.3775,2.3767,2.377,2.3795,2.3797,2.3799,2.3784,2.3812,2.3812,2.3812,2.3791,2.379,2.3789,0,0,0,0,0,0,2.3694,2.3696,2.372,2.3712,2.3716,2.374,2.3743,2.3748,2.3752,2.3774,2.3779,2.3767,2.3796,2.3798,2.3796,2.3785,2.3812,2.3813,2.3792,2.379,2.3789,2.3754,0,0,0,0,0,0,2.3693,2.3696,2.3691,2.3712,2.3716,2.3717,2.3742,2.3748,2.3752,2.3756,2.3775,2.3779,2.3796,2.3795,2.3797,2.3787,2.3813,2.3793,2.3791,2.379,2.3756,2.3752,2.3748,0,0,0,0,0,2.3692,2.3679,2.369,2.3692,2.371,2.3716,2.3718,2.3739,2.3751,2.3746,2.3761,2.3778,2.3786,2.3795,2.3797,2.3786,2.3794,2.3792,2.379,2.3758,2.3753,2.3748,0,0,0,0,0,0,2.3656,2.3682,2.3695,2.3689,2.37,2.3722,2.3716,2.3732,2.374,2.3742,2.3767,2.3771,2.3767,2.3776,2.3785,2.3774,2.3793,2.3791,2.3768,2.3763,2.3759,2.3756,2.3813,0,0,0,0,0,2.3647,2.3649,2.3673,2.3665,2.367,2.3692,2.3695,2.371,2.3722,2.3727,2.3742,2.3753,2.3758,2.3761,2.3767,2.3758,2.3763,2.3752,2.3748,2.3744,2.3742,2.3739,2.3734,2.3783,2.3783,2.3783,0,0,2.3629,2.3644,2.3644,2.3658,2.3668,2.367,2.3696,2.3697,2.3698,2.3727,2.3727,2.3738,2.3752,2.3747,2.3745,2.3755,2.373,2.3742,2.3739,2.3739,2.3736,2.3732,2.3727,2.3781,2.3782,2.3782,0,0,2.3597,2.3608,2.3603,2.3613,2.3629,2.3644,2.3643,2.3663,2.3671,2.3671,2.3693,2.3696,2.3704,2.3713,2.3719,2.3692,2.3708,2.3693,2.3671,2.3667,2.3663,2.366,2.365,2.3646,2.3691,2.3691,2.3691,0,2.3572,2.3576,2.3599,2.3599,2.3604,2.3631,2.3626,2.3635,2.3651,2.3655,2.3665,2.3677,2.3688,2.3686,2.3679,2.3683,2.3682,2.3691,2.3662,2.3659,2.3656,2.3647,2.3643,2.3689,2.3689,2.3689,2.369,0,2.3546,2.3548,2.3542,2.3558,2.3563,2.356,2.3582,2.3585,2.3599,2.3613,2.3613,2.3628,2.3637,2.3638,2.3652,2.3637,2.3643,2.3657,2.3676,2.3649,2.3641,2.3638,2.3686,2.3687,2.3688,2.3688,0,0,2.3491,2.352,2.3517,2.3525,2.3544,2.3547,2.3545,2.3555,2.3557,2.3568,2.3567,2.3574,2.3588,2.3594,2.361,2.3606,2.3584,2.3621,2.3622,2.3614,2.3569,2.3558,2.3553,2.3595,2.3594,2.3594,2.3568,0,2.3463,2.3463,2.3483,2.3477,2.348,2.3505,2.3504,2.3516,2.3529,2.3533,2.3548,2.3552,2.357,2.3574,2.3572,2.3587,2.3575,2.3589,2.3595,2.3594,2.359,2.3549,2.3537,2.3512,2.3565,2.3564,2.3564,0,2.343,2.3439,2.3433,2.3454,2.3455,2.3454,2.3465,2.3469,2.3483,2.3492,2.35,2.3518,2.3518,2.3536,2.3537,2.3546,2.3549,2.3557,2.3557,2.3558,2.3577,2.3549,2.3505,2.3501,2.3559,2.3559,2.356,0,2.3391,2.3402,2.34,2.3406,2.3429,2.3428,2.3437,2.3452,2.3457,2.3466,2.347,2.3479,2.3484,2.3491,2.351,2.3522,2.3509,2.3529,2.3517,2.3517,2.3513,2.3513,2.3468,2.3515,2.3515,2.3515,2.3516,0,2.3358,2.3353,2.3383,2.3382,2.3378,2.3401,2.3397,2.3409,2.3422,2.3423,2.3446,2.3447,2.3473,2.3477,2.3493,2.3491,2.3493,2.3501,2.3505,2.3499,2.3498,2.3501,2.3504,2.3515,2.3515,2.3515,2.3515,0,2.3314,2.3334,2.3333,2.3356,2.3361,2.3357,2.3376,2.3376,2.339,2.3392,2.3394,2.3417,2.3423,2.3443,2.3454,2.3464,2.3458,2.3466,2.3453,2.3456,2.3443,2.3444,2.3399,2.3395,2.3444,2.3444,2.3444,0,2.3291,2.3288,2.331,2.3313,2.3322,2.3326,2.3331,2.3354,2.3358,2.3374,2.3372,2.338,2.3388,2.3396,2.3413,2.3422,2.343,2.3414,2.3432,2.3426,2.343,2.343,2.343,2.341,2.3409,2.3409,2.3408,0,2.3249,2.3259,2.3265,2.3275,2.3281,2.329,2.33,2.3301,2.3326,2.333,2.3337,2.3342,2.3354,2.3361,2.3373,2.3383,2.34,2.3403,2.3401,2.3394,2.3387,2.3391,2.3443,2.3404,2.3404,2.3404,2.3405,2.3405,2.3215,2.3214,2.3229,2.3236,2.3246,2.3255,2.3256,2.3271,2.3277,2.3288,2.3301,2.3306,2.332,2.3338,2.3346,2.335,2.336,2.3357,2.3356,2.3355,2.3352,2.3386,2.3353,2.3353,2.3353,2.3353,2.3353,0,2.3174,2.3186,2.3191,2.3205,2.321,2.3226,2.3238,2.3241,2.3245,2.3257,2.3264,2.3272,2.3279,2.3297,2.3307,2.3307,2.3315,2.3308,2.3308,2.3311,2.3343,2.3344,2.3302,2.3302,2.3302,2.3302,2.3302,2.3302,2.3154,2.3153,2.3164,2.3169,2.318,2.3185,2.3191,2.3199,2.3209,2.3216,2.3223,2.3235,2.3249,2.326,2.3267,2.3273,2.3275,2.3266,2.3274,2.3303,2.3308,2.3313,2.3314,2.3266,2.3266,2.3241,2.3241,2.3241]},{"header":{"parameterUnit":"m.s-1","parameterCategory":1,"la1":30.2991,"la2":30.254,"lo1":-89.0895,"lo2":-89.0444,"dy":0.0017,"dx":0.0017,"nx":28,"ny":28,"refTime":"2023-07-19T09:00:00:Z","depth":0,"parameterNumber":3,"parameterNumberName":"V-component_of_WINDS"},"data":[0,0,0,0,0,0,0,0,0,0,0,0,0,0,0,0,0,0,0,0,0,0,0,0,0,0,0,0,0,0,0,0,0,0,0,0,0,0,0,0,0,0,0,0,0,0,0,0,0,0,0,0,0,0,0,0,0,0,-0.1452,-0.1453,0,-0.15,-0.1501,-0.1501,-0.1494,-0.1493,-0.1492,-0.1491,-0.154,-0.1542,-0.1544,0,0,0,0,0,0,0,0,0,0,0,0,0,-0.1353,-0.1355,-0.1452,-0.1453,-0.1453,-0.15,-0.1501,-0.1502,-0.1494,-0.1493,-0.1492,-0.1491,-0.1539,-0.1542,-0.1544,0,0,0,0,0,0,0,0,0,0,0,0,0,-0.1398,-0.1356,-0.1452,-0.1455,-0.1456,-0.15,-0.1501,-0.1502,-0.1494,-0.1493,-0.1492,-0.149,-0.1538,-0.1541,-0.1545,-0.1588,0,0,-0.1554,-0.1555,0,0,0,0,0,0,0,0,-0.1396,-0.1402,-0.1454,-0.1455,-0.1456,-0.149,-0.1484,-0.1531,-0.1494,-0.148,-0.1491,-0.149,-0.1524,-0.1528,-0.154,-0.1591,-0.1593,-0.1554,-0.1556,-0.1557,-0.1558,0,0,0,0,0,0,0,-0.1393,-0.14,-0.1471,-0.1455,-0.1456,-0.1454,-0.1459,-0.1493,-0.1508,-0.1481,-0.148,-0.1486,-0.1524,-0.1537,-0.1541,-0.1593,-0.1554,-0.1557,-0.1559,-0.156,-0.1684,-0.1686,0,0,0,0,0,0,-0.1389,-0.1397,-0.147,-0.1473,-0.1422,-0.1457,-0.1463,-0.148,-0.1508,-0.1511,-0.1487,-0.1486,-0.1532,-0.1538,-0.1543,-0.1598,-0.1557,-0.156,-0.1562,-0.1683,-0.1685,-0.1686,0,0,0,0,0,0,-0.1387,-0.1395,-0.1468,-0.1435,-0.1444,-0.146,-0.148,-0.1482,-0.1494,-0.1513,-0.1515,-0.1497,-0.1532,-0.1539,-0.1578,-0.1599,-0.1562,-0.1565,-0.1681,-0.1684,-0.1686,-0.1707,0,0,0,0,0,0,-0.1384,-0.1395,-0.1411,-0.1435,-0.1446,-0.1502,-0.1481,-0.1484,-0.15,-0.1498,-0.1523,-0.1526,-0.1531,-0.1573,-0.1581,-0.1603,-0.1567,-0.1679,-0.1682,-0.1685,-0.1704,-0.1709,-0.1714,0,0,0,0,0,-0.138,-0.1415,-0.1412,-0.1421,-0.1467,-0.1503,-0.1509,-0.1515,-0.1502,-0.1519,-0.1531,-0.1525,-0.1595,-0.1577,-0.1586,-0.1609,-0.1678,-0.1681,-0.1685,-0.1702,-0.1708,-0.1714,0,0,0,0,0,0,-0.1392,-0.1418,-0.1415,-0.1458,-0.1479,-0.1501,-0.1523,-0.1521,-0.1545,-0.1542,-0.1548,-0.1554,-0.1594,-0.1605,-0.1584,-0.1654,-0.1635,-0.164,-0.1645,-0.1651,-0.1656,-0.1653,-0.157,0,0,0,0,0,-0.14,-0.1427,-0.1448,-0.1484,-0.1494,-0.1507,-0.1523,-0.1526,-0.1547,-0.1555,-0.157,-0.159,-0.1617,-0.1635,-0.166,-0.1705,-0.1711,-0.1726,-0.173,-0.1734,-0.1739,-0.1766,-0.1773,-0.1697,-0.1697,-0.1697,0,0,-0.1415,-0.1433,-0.145,-0.1486,-0.1502,-0.1531,-0.1514,-0.1544,-0.1565,-0.1559,-0.1598,-0.1609,-0.1633,-0.1676,-0.1695,-0.1686,-0.1761,-0.1738,-0.1741,-0.1744,-0.177,-0.1777,-0.1783,-0.1699,-0.1699,-0.1698,0,0,-0.1459,-0.1475,-0.1507,-0.1524,-0.1549,-0.1558,-0.1565,-0.1589,-0.1597,-0.1635,-0.1632,-0.1657,-0.1703,-0.172,-0.1735,-0.1787,-0.1783,-0.1795,-0.1821,-0.1846,-0.1852,-0.1858,-0.1878,-0.1885,-0.18,-0.18,-0.18,0,-0.1476,-0.1519,-0.1524,-0.1556,-0.1573,-0.1569,-0.1603,-0.1618,-0.165,-0.1662,-0.1651,-0.171,-0.1725,-0.1773,-0.1786,-0.1797,-0.1807,-0.1793,-0.1851,-0.1856,-0.1862,-0.1881,-0.1888,-0.1801,-0.1801,-0.1801,-0.1801,0,-0.1539,-0.1569,-0.1592,-0.1624,-0.1643,-0.1675,-0.1686,-0.1705,-0.1707,-0.1716,-0.1757,-0.1775,-0.1805,-0.1816,-0.1817,-0.1865,-0.1859,-0.185,-0.1831,-0.187,-0.1888,-0.1896,-0.1803,-0.1803,-0.1802,-0.1802,0,0,-0.1591,-0.1627,-0.1636,-0.1651,-0.1678,-0.1702,-0.1734,-0.1764,-0.1781,-0.1803,-0.1831,-0.187,-0.1863,-0.1879,-0.1882,-0.1905,-0.1947,-0.1893,-0.1894,-0.1904,-0.2002,-0.201,-0.2019,-0.1944,-0.1946,-0.1947,-0.2001,0,-0.1639,-0.1697,-0.1704,-0.1755,-0.1784,-0.1781,-0.181,-0.183,-0.184,-0.1866,-0.1877,-0.1905,-0.1892,-0.1903,-0.1925,-0.1937,-0.1967,-0.1933,-0.1971,-0.1973,-0.1967,-0.2028,-0.2036,-0.2086,-0.2008,-0.2009,-0.201,0,-0.1703,-0.1728,-0.1783,-0.1808,-0.182,-0.1846,-0.1875,-0.1899,-0.1922,-0.1928,-0.1948,-0.1948,-0.1982,-0.1962,-0.2009,-0.1986,-0.2002,-0.2011,-0.2013,-0.2018,-0.1995,-0.2036,-0.2102,-0.211,-0.2021,-0.202,-0.2019,0,-0.1738,-0.1785,-0.1825,-0.1837,-0.1867,-0.1886,-0.1899,-0.1921,-0.1939,-0.1964,-0.1976,-0.2005,-0.2021,-0.2043,-0.2051,-0.2035,-0.2099,-0.2079,-0.2106,-0.2106,-0.2121,-0.212,-0.2192,-0.2128,-0.2128,-0.2128,-0.2128,0,-0.1791,-0.1825,-0.1841,-0.1866,-0.1904,-0.1911,-0.1949,-0.1961,-0.1981,-0.2008,-0.2007,-0.2033,-0.2042,-0.2069,-0.2076,-0.2115,-0.2122,-0.2128,-0.213,-0.2129,-0.2129,-0.214,-0.2138,-0.213,-0.213,-0.2129,-0.2129,0,-0.1837,-0.1849,-0.1892,-0.1918,-0.1925,-0.1952,-0.1974,-0.1998,-0.2008,-0.2042,-0.2051,-0.2067,-0.2099,-0.2109,-0.2147,-0.2152,-0.2199,-0.2196,-0.2191,-0.2192,-0.2219,-0.2217,-0.2302,-0.2315,-0.2242,-0.2242,-0.2243,0,-0.1872,-0.1898,-0.1927,-0.1945,-0.1959,-0.1989,-0.2008,-0.2016,-0.2036,-0.2065,-0.2086,-0.2117,-0.2144,-0.2195,-0.221,-0.224,-0.2239,-0.2267,-0.2243,-0.2243,-0.2241,-0.224,-0.2244,-0.2272,-0.2272,-0.2273,-0.2274,0,-0.1932,-0.1936,-0.1964,-0.1994,-0.2017,-0.2041,-0.2064,-0.2079,-0.2091,-0.2113,-0.2146,-0.2167,-0.2207,-0.2239,-0.2269,-0.2283,-0.2281,-0.2281,-0.2289,-0.2289,-0.2286,-0.229,-0.2205,-0.2279,-0.2278,-0.2278,-0.2278,-0.2278,-0.1974,-0.1998,-0.2022,-0.2054,-0.2072,-0.2094,-0.2118,-0.2132,-0.216,-0.2194,-0.2196,-0.2233,-0.2256,-0.2297,-0.2313,-0.2341,-0.2333,-0.2345,-0.2348,-0.2351,-0.2354,-0.228,-0.2346,-0.2346,-0.2346,-0.2346,-0.2346,0,-0.2035,-0.2051,-0.208,-0.2113,-0.2138,-0.2133,-0.2159,-0.218,-0.2212,-0.2235,-0.2261,-0.23,-0.2331,-0.2349,-0.238,-0.24,-0.24,-0.2408,-0.2408,-0.2411,-0.2358,-0.2349,-0.2408,-0.2408,-0.2408,-0.2408,-0.2408,-0.2408,-0.207,-0.2112,-0.2119,-0.217,-0.2185,-0.2221,-0.2237,-0.2257,-0.2275,-0.2319,-0.2346,-0.2357,-0.2378,-0.2411,-0.244,-0.2445,-0.2457,-0.2466,-0.247,-0.2421,-0.2415,-0.2409,-0.24,-0.2469,-0.2469,-0.2521,-0.2522,-0.2522]}]]